| time (UTC) | temp F | wind direction | speed MPH | gust MPH | rain 1hr in | rain 24hr in | rain mn in | humidity % | barometer mb |
| 20260505034535 | 60 | 141 | 1.0 | 8.0 | 0.00 | 0.00 | 0.00 | 67 | 1011.4 |
| 20260505033024 | 60 | 140 | 0.0 | 3.0 | 0.00 | 0.00 | 0.00 | 66 | 1011.3 |
| 20260505031525 | 60 | 139 | 0.0 | 3.0 | 0.00 | 0.00 | 0.00 | 66 | 1011.4 |
| 20260505030022 | 60 | 140 | 0.0 | 7.0 | 0.00 | 0.00 | 0.00 | 65 | 1011.4 |
| 20260505024522 | 60 | 140 | 0.0 | 4.0 | 0.00 | 0.00 | 0.00 | 65 | 1011.5 |
| 20260505023021 | 61 | 141 | 0.0 | 0.0 | 0.00 | 0.00 | 0.00 | 64 | 1011.6 |
| 20260505021522 | 61 | 141 | 0.0 | 0.0 | 0.00 | 0.00 | 0.00 | 64 | 1011.6 |
| 20260505020034 | 61 | 141 | 0.0 | 1.0 | 0.00 | 0.00 | 0.00 | 62 | 1011.6 |
| 20260505014519 | 61 | 141 | 0.0 | 2.0 | 0.00 | 0.00 | 0.00 | 63 | 1011.6 |
| 20260505013019 | 61 | 141 | 0.0 | 1.0 | 0.00 | 0.00 | 0.00 | 62 | 1011.5 |
| 20260505011518 | 61 | 142 | 0.0 | 4.0 | 0.00 | 0.00 | 0.00 | 62 | 1011.3 |
| 20260505010018 | 62 | 140 | 0.0 | 4.0 | 0.00 | 0.00 | 0.00 | 61 | 1011.3 |
| 20260505004521 | 62 | 142 | 0.0 | 8.0 | 0.00 | 0.00 | 0.00 | 59 | 1011.1 |
| 20260505003017 | 63 | 140 | 0.0 | 7.0 | 0.00 | 0.00 | 0.00 | 57 | 1010.9 |
| 20260505001518 | 64 | 140 | 0.0 | 10.0 | 0.00 | 0.00 | 0.00 | 55 | 1010.8 |
| 20260505000022 | 65 | 140 | 0.0 | 5.0 | 0.00 | 0.00 | 0.00 | 52 | 1010.5 |
| 20260504234516 | 66 | 139 | 0.0 | 8.0 | 0.00 | 0.00 | 0.00 | 49 | 1010.4 |
| 20260504233016 | 66 | 140 | 0.0 | 7.0 | 0.00 | 0.00 | 0.00 | 49 | 1010.3 |
| 20260504231515 | 67 | 132 | 2.0 | 11.0 | 0.00 | 0.00 | 0.00 | 47 | 1010.2 |
| 20260504230014 | 67 | 137 | 1.0 | 13.0 | 0.00 | 0.00 | 0.00 | 47 | 1010.1 |
| 20260504224517 | 68 | 139 | 1.0 | 14.0 | 0.00 | 0.00 | 0.00 | 47 | 1010.0 |
| 20260504223013 | 69 | 142 | 3.0 | 9.0 | 0.00 | 0.00 | 0.00 | 47 | 1009.8 |
| 20260504221516 | 69 | 148 | 0.0 | 7.0 | 0.00 | 0.00 | 0.00 | 47 | 1009.9 |
| 20260504220029 | 69 | 134 | 4.0 | 11.0 | 0.00 | 0.00 | 0.00 | 46 | 1009.9 |
| 20260504214512 | 70 | 148 | 2.0 | 10.0 | 0.00 | 0.00 | 0.00 | 44 | 1009.8 |
| 20260504213014 | 70 | 151 | 3.0 | 16.0 | 0.00 | 0.00 | 0.00 | 45 | 1009.9 |
| 20260504211511 | 70 | 145 | 4.0 | 13.0 | 0.00 | 0.00 | 0.00 | 45 | 1009.8 |
| 20260504210009 | 71 | 142 | 2.0 | 16.0 | 0.00 | 0.00 | 0.00 | 45 | 1009.9 |
| 20260504204508 | 72 | 137 | 0.0 | 12.0 | 0.00 | 0.00 | 0.00 | 44 | 1009.7 |
| 20260504203008 | 75 | 146 | 1.0 | 9.0 | 0.00 | 0.00 | 0.00 | 34 | 1009.6 |
| 20260504201507 | 75 | 127 | 0.0 | 11.0 | 0.00 | 0.00 | 0.00 | 32 | 1009.6 |
| 20260504200006 | 75 | 142 | 0.0 | 14.0 | 0.00 | 0.00 | 0.00 | 32 | 1009.8 |
| 20260504194504 | 76 | 99 | 2.0 | 11.0 | 0.00 | 0.00 | 0.00 | 31 | 1010.1 |
| 20260504193002 | 76 | 136 | 0.0 | 9.0 | 0.00 | 0.00 | 0.00 | 32 | 1010.1 |
| 20260504191559 | 76 | 42 | 0.0 | 7.0 | 0.00 | 0.00 | 0.00 | 31 | 1010.4 |
| 20260504190107 | 75 | 115 | 0.0 | 11.0 | 0.00 | 0.00 | 0.00 | 35 | 1010.7 |
| 20260504184554 | 75 | 140 | 1.0 | 10.0 | 0.00 | 0.00 | 0.00 | 33 | 1010.9 |
| 20260504183058 | 74 | 126 | 2.0 | 11.0 | 0.00 | 0.00 | 0.00 | 32 | 1011.1 |
| 20260504181549 | 74 | 54 | 2.0 | 8.0 | 0.00 | 0.00 | 0.00 | 33 | 1011.3 |
| 20260504180122 | 73 | 130 | 0.0 | 11.0 | 0.00 | 0.00 | 0.00 | 36 | 1011.4 |
| 20260504174545 | 73 | 106 | 0.0 | 10.0 | 0.00 | 0.00 | 0.00 | 33 | 1011.6 |
| 20260504173043 | 73 | 141 | 0.0 | 12.0 | 0.00 | 0.00 | 0.00 | 36 | 1011.8 |
| 20260504171541 | 73 | 81 | 0.0 | 7.0 | 0.00 | 0.00 | 0.00 | 33 | 1012.0 |
| 20260504081558 | 47 | 125 | 0.0 | 0.0 | 0.00 | 0.00 | 0.00 | 63 | 1015.1 |
| 20260504044539 | 46 | 125 | 0.0 | 0.0 | 0.00 | 0.00 | 0.00 | 63 | 1014.2 |
| 20260504043043 | 46 | 125 | 0.0 | 0.0 | 0.00 | 0.00 | 0.00 | 63 | 1014.1 |
| 20260504041534 | 47 | 125 | 0.0 | 0.0 | 0.00 | 0.00 | 0.00 | 60 | 1014.0 |
| 20260504040028 | 48 | 125 | 0.0 | 0.0 | 0.00 | 0.00 | 0.00 | 61 | 1013.9 |